TimeAKST,TemperatureF,Dew PointF,Humidity,Sea Level PressureIn,VisibilityMPH,Wind Direction,Wind SpeedMPH,Gust SpeedMPH,PrecipitationIn,Events,Conditions,WindDirDegrees,DateUTC
12:54 AM,30.0,21.9,72,29.98,10.0,WNW,21.9,28.8,0.00,,Overcast,290,2012-11-07 09:54:00
1:54 AM,28.9,21.9,75,30.02,10.0,WNW,19.6,29.9,0.00,,Overcast,290,2012-11-07 10:54:00
2:54 AM,28.0,23.0,81,30.05,5.0,WNW,19.6,26.5,0.00,Snow,Light Snow,300,2012-11-07 11:54:00
3:54 AM,28.0,21.0,75,30.07,10.0,WNW,17.3,25.3,0.00,,Overcast,300,2012-11-07 12:54:00
4:54 AM,28.0,19.9,72,30.11,10.0,WNW,15.0,24.2,0.00,,Overcast,290,2012-11-07 13:54:00
5:54 AM,28.9,18.0,64,30.14,10.0,WNW,12.7,24.2,N/A,,Overcast,300,2012-11-07 14:54:00
6:54 AM,28.9,17.1,61,30.17,10.0,WNW,15.0,24.2,N/A,,Overcast,290,2012-11-07 15:54:00
7:54 AM,28.0,16.0,61,30.19,10.0,NW,10.4,20.7,N/A,,Overcast,310,2012-11-07 16:54:00
8:54 AM,28.0,16.0,61,30.22,10.0,WNW,17.3,24.2,N/A,,Scattered Clouds,300,2012-11-07 17:54:00
9:54 AM,28.9,16.0,58,30.25,10.0,WNW,12.7,24.2,N/A,,Overcast,300,2012-11-07 18:54:00
10:54 AM,28.9,15.1,56,30.27,10.0,WNW,16.1,23.0,N/A,,Mostly Cloudy,300,2012-11-07 19:54:00
11:54 AM,30.0,14.0,51,30.29,10.0,WNW,18.4,25.3,N/A,,Mostly Cloudy,290,2012-11-07 20:54:00
12:29 PM,30.2,12.2,47,30.29,4.0,WNW,17.3,28.8,N/A,,Haze,290,2012-11-07 21:29:00
12:54 PM,30.0,12.9,49,30.31,7.0,WNW,19.6,29.9,N/A,,Overcast,300,2012-11-07 21:54:00
1:54 PM,30.0,14.0,51,30.32,6.0,WNW,15.0,-,N/A,,Haze,290,2012-11-07 22:54:00
2:54 PM,30.0,12.9,49,30.35,7.0,WNW,15.0,26.5,N/A,,Partly Cloudy,290,2012-11-07 23:54:00
3:54 PM,30.0,12.0,47,30.36,7.0,WNW,17.3,25.3,N/A,,Clear,300,2012-11-08 00:54:00
4:54 PM,28.0,14.0,56,30.39,10.0,WNW,12.7,18.4,N/A,,Clear,300,2012-11-08 01:54:00
5:54 PM,27.0,12.0,53,30.40,10.0,NW,11.5,20.7,N/A,,Clear,320,2012-11-08 02:54:00
6:54 PM,27.0,12.0,53,30.41,10.0,NW,17.3,23.0,N/A,,Clear,320,2012-11-08 03:54:00
7:54 PM,26.1,12.9,58,30.42,10.0,NW,16.1,23.0,N/A,,Clear,320,2012-11-08 04:54:00
8:54 PM,25.0,12.0,58,30.44,10.0,NW,13.8,23.0,N/A,,Clear,320,2012-11-08 05:54:00
9:54 PM,24.1,10.9,57,30.44,9.0,NW,13.8,-,N/A,,Clear,310,2012-11-08 06:54:00
10:54 PM,23.0,10.9,60,30.46,10.0,NW,16.1,24.2,N/A,,Clear,310,2012-11-08 07:54:00
11:54 PM,23.0,12.0,63,30.46,10.0,WNW,17.3,-,N/A,,Clear,290,2012-11-08 08:54:00